SVA343 OEJN-DAAG

Flight info

Callsign SVA343
Flight time N/A
Altitude 40000
Route BOMOX M686 OTEMO T55 KUNKI P751 METRU UP868 ARLOS DCT OMENI UL874 DIMAO UZ888 BABOR UA31 ALR
Aircraft B77W/H-SDE2E3FGHIRWXY/L

Departure

Time 2026-05-07 15:23
Airport King Abdulaziz International Airport (OEJN)

Arrival

Time N/A
Airport Houari Boumediene Airport (DAAG)
Time Latitude Longitude Altitude Speed Heading
2026-05-07 14:48 21.67639 39.16944 35 ft 0 kts 69°
2026-05-07 15:10 21.67638 39.16940 34 ft 3 kts 69°
2026-05-07 15:11 21.67629 39.16914 35 ft 4 kts 70°
2026-05-07 15:11 21.67621 39.16889 32 ft 3 kts 70°
2026-05-07 15:11 21.67609 39.16869 33 ft 4 kts 17°
2026-05-07 15:11 21.67585 39.16871 34 ft 4 kts 339°
2026-05-07 15:12 21.67572 39.16876 33 ft 0 kts 340°
2026-05-07 15:16 21.67580 39.16873 34 ft 7 kts 340°
2026-05-07 15:16 21.67663 39.16840 35 ft 12 kts 340°
2026-05-07 15:16 21.67707 39.16796 35 ft 9 kts 276°
2026-05-07 15:16 21.67690 39.16726 35 ft 11 kts 250°
2026-05-07 15:17 21.67660 39.16636 35 ft 15 kts 250°
2026-05-07 15:17 21.67618 39.16520 35 ft 18 kts 248°
2026-05-07 15:17 21.67579 39.16402 35 ft 17 kts 251°
2026-05-07 15:17 21.67534 39.16270 35 ft 20 kts 250°
2026-05-07 15:18 21.67491 39.16174 35 ft 10 kts 216°
2026-05-07 15:18 21.67419 39.16177 35 ft 11 kts 162°
2026-05-07 15:18 21.67346 39.16203 35 ft 11 kts 160°
2026-05-07 15:18 21.67274 39.16231 36 ft 11 kts 160°
2026-05-07 15:19 21.67202 39.16259 36 ft 11 kts 160°
2026-05-07 15:19 21.67129 39.16288 36 ft 11 kts 160°
2026-05-07 15:19 21.67056 39.16317 36 ft 11 kts 160°
2026-05-07 15:19 21.66983 39.16346 36 ft 11 kts 160°
2026-05-07 15:20 21.66909 39.16373 37 ft 11 kts 160°
2026-05-07 15:20 21.66835 39.16402 37 ft 12 kts 160°
2026-05-07 15:20 21.66749 39.16435 36 ft 14 kts 160°
2026-05-07 15:20 21.66659 39.16472 36 ft 14 kts 158°
2026-05-07 15:21 21.66562 39.16511 36 ft 15 kts 160°
2026-05-07 15:21 21.66459 39.16550 36 ft 16 kts 161°
2026-05-07 15:21 21.66350 39.16593 36 ft 17 kts 158°
2026-05-07 15:21 21.66252 39.16634 36 ft 12 kts 160°
2026-05-07 15:22 21.66179 39.16615 34 ft 11 kts 226°
2026-05-07 15:22 21.66150 39.16535 35 ft 12 kts 256°
2026-05-07 15:22 21.66186 39.16467 35 ft 12 kts 329°
2026-05-07 15:22 21.66257 39.16438 35 ft 23 kts 340°
2026-05-07 15:23 21.66699 39.16263 45 ft 111 kts 340°
2026-05-07 15:23 21.67664 39.15882 69 ft 178 kts 340°
2026-05-07 15:23 21.68899 39.15421 663 ft 196 kts 340°
2026-05-07 15:23 21.70115 39.14944 1979 ft 173 kts 340°
2026-05-07 15:24 21.71227 39.14496 2857 ft 177 kts 339°
2026-05-07 15:24 21.72490 39.13988 3127 ft 210 kts 339°
2026-05-07 15:24 21.73961 39.13398 3390 ft 242 kts 339°
2026-05-07 15:24 21.75631 39.12733 3799 ft 266 kts 339°
2026-05-07 15:25 21.77408 39.12027 4581 ft 277 kts 339°
2026-05-07 15:25 21.79247 39.11300 5416 ft 284 kts 339°
2026-05-07 15:25 21.81089 39.10573 6532 ft 280 kts 339°
2026-05-07 15:25 21.82301 39.10096 7186 ft 281 kts 339°
2026-05-07 15:26 21.84149 39.09367 8087 ft 285 kts 338°
2026-05-07 15:26 21.86027 39.08627 9000 ft 289 kts 337°
2026-05-07 15:26 21.87930 39.07875 9901 ft 293 kts 336°
2026-05-07 15:26 21.89871 39.07103 10626 ft 305 kts 335°
2026-05-07 15:27 21.92060 39.06099 10933 ft 336 kts 332°
2026-05-07 15:27 21.92340 39.05963 10953 ft 340 kts 332°
2026-05-07 15:27 21.94585 39.04857 11173 ft 370 kts 333°
2026-05-07 15:27 21.97796 39.03302 12014 ft 390 kts 333°
2026-05-07 15:28 21.99482 39.02496 12652 ft 395 kts 333°
2026-05-07 15:28 22.02015 39.01288 13678 ft 401 kts 332°
2026-05-07 15:28 22.04582 39.00062 14564 ft 406 kts 332°
2026-05-07 15:28 22.07182 38.98818 15483 ft 412 kts 332°
2026-05-07 15:29 22.09822 38.97554 16405 ft 417 kts 332°
2026-05-07 15:29 22.12491 38.96276 17323 ft 423 kts 332°
2026-05-07 15:29 22.15202 38.94977 18205 ft 429 kts 332°
2026-05-07 15:29 22.17946 38.93663 18998 ft 434 kts 332°
2026-05-07 15:30 22.20720 38.92338 19850 ft 437 kts 332°
2026-05-07 15:30 22.23499 38.91002 20708 ft 435 kts 330°
2026-05-07 15:30 22.26007 38.89211 21253 ft 433 kts 312°
2026-05-07 15:30 22.27806 38.86690 21997 ft 426 kts 296°
2026-05-07 15:31 22.29228 38.83875 22695 ft 430 kts 295°
2026-05-07 15:31 22.30686 38.81034 23434 ft 435 kts 296°
2026-05-07 15:31 22.32181 38.78178 24075 ft 438 kts 296°
2026-05-07 15:31 22.33699 38.75315 24725 ft 441 kts 296°
2026-05-07 15:32 22.35231 38.72434 25348 ft 444 kts 296°
2026-05-07 15:32 22.36777 38.69524 25967 ft 448 kts 295°
2026-05-07 15:32 22.38332 38.66591 26554 ft 452 kts 295°
2026-05-07 15:32 22.39898 38.63636 27159 ft 455 kts 295°
2026-05-07 15:33 22.41474 38.60660 27745 ft 458 kts 295°
2026-05-07 15:33 22.43054 38.57673 28293 ft 462 kts 295°
2026-05-07 15:33 22.44652 38.54653 28812 ft 465 kts 295°
2026-05-07 15:33 22.46261 38.51611 29320 ft 468 kts 295°
2026-05-07 15:34 22.47883 38.48541 29789 ft 471 kts 294°
2026-05-07 15:34 22.49587 38.45520 30222 ft 477 kts 300°
2026-05-07 15:34 22.51895 38.42896 30715 ft 486 kts 315°
2026-05-07 15:34 22.54589 38.40657 31090 ft 490 kts 316°
2026-05-07 15:35 22.57303 38.38411 31513 ft 491 kts 315°
2026-05-07 15:35 22.60003 38.36150 32038 ft 489 kts 315°
2026-05-07 15:35 22.62675 38.33884 32574 ft 488 kts 314°
2026-05-07 15:35 22.65330 38.31608 33096 ft 487 kts 314°
2026-05-07 15:36 22.67977 38.29321 33562 ft 486 kts 313°
2026-05-07 15:36 22.70616 38.27032 33992 ft 486 kts 313°
2026-05-07 15:36 22.73225 38.24766 34345 ft 488 kts 313°
2026-05-07 15:36 22.75913 38.22428 34654 ft 490 kts 313°
2026-05-07 15:37 22.78573 38.20115 34981 ft 491 kts 312°
2026-05-07 15:37 22.81239 38.17800 35355 ft 491 kts 312°
2026-05-07 15:37 22.83875 38.15511 35724 ft 492 kts 311°
2026-05-07 15:37 22.86545 38.13192 36044 ft 493 kts 311°
2026-05-07 15:38 22.89226 38.10860 36336 ft 495 kts 311°
2026-05-07 15:38 22.91909 38.08526 36643 ft 496 kts 311°
2026-05-07 15:38 22.94600 38.06184 36971 ft 496 kts 310°
2026-05-07 15:38 22.97334 38.03804 37284 ft 497 kts 310°
2026-05-07 15:39 22.99996 38.01484 37580 ft 498 kts 310°
2026-05-07 15:39 23.02679 37.99146 37876 ft 499 kts 310°
2026-05-07 15:39 23.05389 37.96783 38169 ft 500 kts 310°
2026-05-07 15:39 23.08096 37.94422 38606 ft 497 kts 310°
2026-05-07 15:40 23.10776 37.92089 39078 ft 492 kts 310°
2026-05-07 15:40 23.13434 37.89773 39479 ft 488 kts 310°
2026-05-07 15:40 23.16055 37.87484 39765 ft 487 kts 310°
2026-05-07 15:40 23.18702 37.85161 39800 ft 491 kts 310°
2026-05-07 15:41 23.24027 37.80494 39844 ft 490 kts 310°
2026-05-07 15:41 23.29292 37.75888 39841 ft 483 kts 310°
2026-05-07 15:42 23.34515 37.71304 39872 ft 482 kts 310°
2026-05-07 15:42 23.41853 37.64859 39891 ft 480 kts 311°
2026-05-07 15:43 23.47265 37.60100 39859 ft 479 kts 311°
2026-05-07 15:43 23.52442 37.55541 39854 ft 478 kts 310°
2026-05-07 15:44 23.57605 37.50989 39850 ft 477 kts 310°
2026-05-07 15:44 23.62765 37.46435 39868 ft 477 kts 311°
2026-05-07 15:45 23.67919 37.41880 39856 ft 477 kts 311°
2026-05-07 15:45 23.73068 37.37327 39851 ft 477 kts 311°
2026-05-07 15:46 23.80787 37.30491 39858 ft 477 kts 311°
2026-05-07 15:47 23.85890 37.25967 39853 ft 476 kts 311°
2026-05-07 15:47 23.91049 37.21388 39868 ft 476 kts 311°
2026-05-07 15:48 23.96135 37.16869 39854 ft 475 kts 311°
2026-05-07 15:48 24.01287 37.12287 39853 ft 474 kts 311°
2026-05-07 15:49 24.06392 37.07741 39855 ft 473 kts 311°
2026-05-07 15:49 24.11493 37.03192 39867 ft 473 kts 311°
2026-05-07 15:50 24.16591 36.98642 39886 ft 472 kts 311°
2026-05-07 15:50 24.21678 36.94099 39873 ft 471 kts 311°
2026-05-07 15:51 24.26755 36.89559 39856 ft 470 kts 311°
2026-05-07 15:51 24.31820 36.85025 39868 ft 470 kts 311°
2026-05-07 15:52 24.36878 36.80491 39862 ft 469 kts 311°
2026-05-07 15:52 24.41927 36.75960 39891 ft 469 kts 311°
2026-05-07 15:53 24.46986 36.71415 39873 ft 470 kts 312°
2026-05-07 15:53 24.52046 36.66866 39871 ft 470 kts 312°
2026-05-07 15:54 24.57110 36.62309 39870 ft 470 kts 312°
2026-05-07 15:54 24.61463 36.57197 39875 ft 450 kts 295°
2026-05-07 15:55 24.64196 36.51219 39870 ft 434 kts 282°
2026-05-07 15:55 24.66112 36.44920 39879 ft 436 kts 282°
2026-05-07 15:56 24.68024 36.38579 39878 ft 438 kts 282°
2026-05-07 15:56 24.69973 36.32217 39878 ft 440 kts 282°
2026-05-07 15:57 24.71947 36.25822 39875 ft 441 kts 282°
2026-05-07 15:57 24.73926 36.19411 39884 ft 444 kts 283°
2026-05-07 15:58 24.75910 36.12976 39881 ft 445 kts 283°
2026-05-07 15:58 24.77898 36.06514 39879 ft 447 kts 283°
2026-05-07 15:59 24.79889 36.00032 39877 ft 447 kts 283°
2026-05-07 15:59 24.81879 35.93543 39881 ft 447 kts 283°
2026-05-07 16:00 24.83864 35.87057 39880 ft 447 kts 283°
2026-05-07 16:00 24.85833 35.80613 39884 ft 447 kts 283°
2026-05-07 16:01 24.87808 35.74133 39910 ft 446 kts 283°
2026-05-07 16:01 24.89781 35.67652 39885 ft 446 kts 283°
2026-05-07 16:02 24.91752 35.61166 39882 ft 446 kts 283°
2026-05-07 16:02 24.93718 35.54688 39891 ft 446 kts 283°
2026-05-07 16:03 24.95681 35.48203 39909 ft 446 kts 284°
2026-05-07 16:03 24.97639 35.41726 39896 ft 445 kts 284°
2026-05-07 16:04 24.99591 35.35256 39890 ft 444 kts 284°
2026-05-07 16:04 25.01534 35.28807 39895 ft 443 kts 284°
2026-05-07 16:05 25.03470 35.22369 39907 ft 442 kts 284°
2026-05-07 16:05 25.05697 35.16040 39892 ft 447 kts 294°
2026-05-07 16:06 25.09167 35.10300 39902 ft 454 kts 304°
2026-05-07 16:06 25.13609 35.05275 39893 ft 459 kts 310°
2026-05-07 16:07 25.18217 35.00385 39902 ft 460 kts 310°
2026-05-07 16:07 25.22811 34.95454 39906 ft 460 kts 310°
2026-05-07 16:08 25.27381 34.90498 39904 ft 461 kts 310°
2026-05-07 16:08 25.31945 34.85525 39902 ft 461 kts 310°
2026-05-07 16:09 25.36504 34.80550 39913 ft 461 kts 310°
2026-05-07 16:09 25.41062 34.75573 39912 ft 461 kts 310°
2026-05-07 16:10 25.45619 34.70585 39921 ft 461 kts 310°
2026-05-07 16:10 25.50177 34.65605 39915 ft 461 kts 310°
2026-05-07 16:11 25.54740 34.60607 39911 ft 462 kts 310°
2026-05-07 16:11 25.59213 34.55583 39906 ft 459 kts 307°
2026-05-07 16:12 25.63368 34.50211 39910 ft 459 kts 306°
2026-05-07 16:12 25.67491 34.44809 39945 ft 459 kts 306°
2026-05-07 16:13 25.71632 34.39408 39931 ft 460 kts 307°
2026-05-07 16:13 25.75777 34.34016 39928 ft 459 kts 307°
2026-05-07 16:14 25.79919 34.28625 39926 ft 459 kts 307°
2026-05-07 16:14 25.83361 34.24139 39926 ft 459 kts 307°
2026-05-07 16:15 25.87495 34.18744 39932 ft 458 kts 307°
2026-05-07 16:15 25.91626 34.13347 39931 ft 459 kts 307°
2026-05-07 16:16 25.95752 34.07948 39925 ft 459 kts 307°
2026-05-07 16:16 25.99877 34.02542 39925 ft 458 kts 307°
2026-05-07 16:17 26.03998 33.97134 39925 ft 458 kts 307°
2026-05-07 16:17 26.08115 33.91725 39924 ft 458 kts 308°
2026-05-07 16:18 26.12222 33.86323 39919 ft 457 kts 307°
2026-05-07 16:18 26.16319 33.80927 39919 ft 456 kts 307°
2026-05-07 16:19 26.20409 33.75535 39918 ft 456 kts 307°
2026-05-07 16:19 26.24495 33.70140 39918 ft 455 kts 307°
2026-05-07 16:20 26.28575 33.64747 39927 ft 456 kts 308°
2026-05-07 16:20 26.32630 33.59381 39912 ft 455 kts 308°
2026-05-07 16:21 26.36703 33.53984 39913 ft 455 kts 308°
2026-05-07 16:21 26.40772 33.48586 39906 ft 455 kts 308°
2026-05-07 16:22 26.44842 33.43181 39914 ft 455 kts 307°
2026-05-07 16:22 26.48910 33.37771 39888 ft 455 kts 307°
2026-05-07 16:23 26.52973 33.32363 39908 ft 455 kts 307°
2026-05-07 16:23 26.57038 33.26942 39910 ft 455 kts 307°
2026-05-07 16:24 26.61105 33.21512 39903 ft 456 kts 307°
2026-05-07 16:24 26.65171 33.16077 39907 ft 456 kts 307°
2026-05-07 16:25 26.69238 33.10633 39908 ft 456 kts 308°
2026-05-07 16:25 26.73302 33.05188 39896 ft 455 kts 308°
2026-05-07 16:26 26.77357 32.99749 39893 ft 455 kts 308°
2026-05-07 16:26 26.81375 32.94351 39895 ft 454 kts 308°
2026-05-07 16:27 26.85415 32.88918 39914 ft 454 kts 308°
2026-05-07 16:27 26.89440 32.83498 39890 ft 452 kts 308°
2026-05-07 16:28 26.93453 32.78088 39896 ft 451 kts 308°
2026-05-07 16:28 26.97451 32.72691 39899 ft 449 kts 308°
2026-05-07 16:29 27.01435 32.67306 39910 ft 448 kts 308°
2026-05-07 16:29 27.05410 32.61927 39907 ft 448 kts 308°
2026-05-07 16:30 27.09376 32.56555 39912 ft 447 kts 308°
2026-05-07 16:30 27.13329 32.51192 39917 ft 446 kts 308°
2026-05-07 16:31 27.17283 32.45821 39926 ft 446 kts 308°
2026-05-07 16:31 27.21233 32.40449 39922 ft 446 kts 308°
2026-05-07 16:32 27.25181 32.35074 39927 ft 446 kts 308°
2026-05-07 16:32 27.29121 32.29702 39924 ft 445 kts 309°
2026-05-07 16:33 27.32978 32.24280 39934 ft 443 kts 307°
2026-05-07 16:33 27.36722 32.18777 39932 ft 442 kts 307°
2026-05-07 16:34 27.40454 32.13280 39942 ft 442 kts 307°
2026-05-07 16:34 27.44191 32.07801 39946 ft 441 kts 307°
2026-05-07 16:35 27.47928 32.02329 39984 ft 440 kts 307°
2026-05-07 16:35 27.51633 31.96903 39975 ft 440 kts 307°
2026-05-07 16:36 27.55363 31.91432 39997 ft 440 kts 307°
2026-05-07 16:36 27.59109 31.85929 39994 ft 440 kts 307°
2026-05-07 16:37 27.62835 31.80449 40009 ft 440 kts 307°
2026-05-07 16:37 27.66524 31.75015 40027 ft 439 kts 308°
2026-05-07 16:38 27.70264 31.69501 40034 ft 439 kts 307°
2026-05-07 16:38 27.73946 31.64065 40035 ft 439 kts 307°
2026-05-07 16:39 27.77648 31.58592 40044 ft 438 kts 307°
2026-05-07 16:39 27.81348 31.53116 40041 ft 438 kts 307°
2026-05-07 16:40 27.85038 31.47645 40046 ft 438 kts 308°
2026-05-07 16:40 27.88726 31.42173 40057 ft 438 kts 308°
2026-05-07 16:41 27.92416 31.36691 40051 ft 438 kts 308°
2026-05-07 16:41 27.96102 31.31209 40052 ft 438 kts 308°
2026-05-07 16:42 27.99796 31.25704 40054 ft 438 kts 308°
2026-05-07 16:42 28.03482 31.20206 40055 ft 438 kts 309°
2026-05-07 16:43 28.07157 31.14699 40062 ft 439 kts 308°
2026-05-07 16:43 28.10576 31.09015 40066 ft 440 kts 306°
2026-05-07 16:44 28.13958 31.03244 40060 ft 440 kts 306°
2026-05-07 16:44 28.17344 30.97469 40060 ft 440 kts 306°
2026-05-07 16:45 28.20735 30.91700 40065 ft 439 kts 306°
2026-05-07 16:45 28.24123 30.85939 40066 ft 439 kts 306°
2026-05-07 16:46 28.27509 30.80175 40064 ft 439 kts 306°
2026-05-07 16:46 28.29200 30.77292 40066 ft 439 kts 306°